Weather History for Port Hope, MI

Change the Weather History Date:

Friday, October 12, 2012

  Actual Average Record
Temperature  
Mean Temperature 41 °F -  
Max Temperature 48 °F 58 °F 81 °F (2008)
Min Temperature 36 °F 44 °F 32 °F (2006)
Degree Days  
Heating Degree Days 24    
Moisture  
Dew Point 29 °F    
Average Humidity 60    
Maximum Humidity 76    
Minimum Humidity 40    
Precipitation  
Precipitation 0.03 in - - ()
Sea Level Pressure  
Sea Level Pressure 30.35 in    
Wind  
Wind Speed 8 mph (North)    
Max Wind Speed 15 mph    
Max Gust Speed 33 mph    
Averages and records for this station are not official NWS values.
T = Trace of Precipitation, MM = Missing Value Source: NWS Daily Summary

Daily Weather History Graph

Daily Weather History Graph

Search for Another Location

Airport:

Trip Planner

Search our weather history database for the weather conditions in past years. The results will help you decide how hot, cold, wet, or windy it might be!

Date:

Astronomy

Oct. 12, 2012 Rise Set
Actual Time 7:42 AM EDT 6:51 PM EDT
Civil Twilight 7:13 AM EDT 7:20 PM EDT
Nautical Twilight 6:40 AM EDT 7:53 PM EDT
Astronomical Twilight 6:06 AM EDT 8:27 PM EDT
Moon 4:18 AM EDT (10/12) 5:05 PM EDT (10/12)
Length of Visible Light 12h 06m
Length of Day
11h 08m
Waning Crescent, 11% of the Moon is Illuminated
Oct 12
Waning Crescent
Oct 15
New
Oct 21
First Quarter
Oct 29
Full
Nov 6
Last Quarter

Hourly Weather History & Observations

Time (EDT) Temp. Windchill Dew Point Humidity Pressure Visibility Wind Dir Wind Speed Gust Speed Precip Events Conditions
12:51 AM 44.1 °F 38.1 °F 33.1 °F 65% 30.14 in - NW 11.5 mph 21.9 mph N/A   Unknown
1:51 AM 43.0 °F 35.7 °F 32.0 °F 65% 30.16 in - WNW 15.0 mph 33.4 mph N/A   Unknown
2:51 AM 43.0 °F 36.8 °F 34.0 °F 71% 30.18 in - NW 11.5 mph 20.7 mph N/A   Unknown
3:51 AM 42.1 °F 36.1 °F 34.0 °F 73% 30.20 in - NW 10.4 mph 17.3 mph N/A   Unknown
4:51 AM 42.1 °F 37.1 °F 35.1 °F 76% 30.23 in - NW 8.1 mph - N/A   Unknown
5:51 AM 43.0 °F 41.3 °F 36.0 °F 76% 30.26 in - Variable 3.5 mph - N/A   Unknown
6:51 AM 42.1 °F 40.2 °F 33.1 °F 70% 30.29 in - Variable 3.5 mph - N/A   Unknown
7:51 AM 42.1 °F - 34.0 °F 73% 30.32 in - Calm Calm - 0.03 in   Unknown
8:51 AM 44.1 °F - 30.0 °F 58% 30.36 in - Calm Calm - N/A   Unknown
9:51 AM 44.1 °F 38.1 °F 28.0 °F 53% 30.40 in - North 11.5 mph 19.6 mph N/A   Unknown
10:51 AM 46.0 °F 41.4 °F 28.0 °F 50% 30.42 in - North 9.2 mph 18.4 mph N/A   Unknown
11:51 AM 46.0 °F 41.0 °F 23.0 °F 40% 30.44 in - North 10.4 mph 19.6 mph N/A   Unknown
12:51 PM 46.9 °F - 27.0 °F 46% 30.45 in - NE 8.1 mph - N/A   Unknown
1:51 PM 46.9 °F - 26.1 °F 44% 30.44 in - North 4.6 mph - N/A   Unknown
2:51 PM 46.9 °F - 26.1 °F 44% 30.44 in - Calm Calm - N/A   Unknown
3:51 PM 46.0 °F 43.9 °F 26.1 °F 46% 30.44 in - NE 4.6 mph - N/A   Unknown
4:51 PM 45.0 °F 42.6 °F 26.1 °F 48% 30.44 in - East 4.6 mph - N/A   Unknown
5:51 PM 45.0 °F 43.5 °F 26.1 °F 48% 30.43 in - East 3.5 mph - N/A   Unknown
7:51 PM 37.0 °F - 26.1 °F 65% 30.43 in - Calm Calm - N/A   Unknown
8:51 PM 36.0 °F - 26.1 °F 67% 30.42 in - Calm Calm - N/A   Unknown
9:51 PM 36.0 °F 33.3 °F 26.1 °F 67% 30.41 in - South 3.5 mph - N/A   Unknown
10:51 PM 37.9 °F 35.5 °F 27.0 °F 65% 30.42 in - South 3.5 mph - N/A   Unknown
11:51 PM 39.0 °F 36.8 °F 27.0 °F 62% 30.40 in - South 3.5 mph - N/A   Unknown